Fes-Sais, Morocco

2:55 AM WET on May 22, 2018 (GMT +0000)
Fes-Sais

Weather History for GMFF - April, 2013

Change the Weather History Date:

Tuesday, April 9, 2013

  Actual Average Record
Temperature  
Mean Temperature 57 °F -  
Max Temperature 73 °F 71 °F 86 °F (2014)
Min Temperature 41 °F 47 °F 37 °F (1998)
Degree Days  
Heating Degree Days 8    
Growing Degree Days 7 (Base 50)    
Moisture  
Dew Point 48 °F    
Average Humidity 74    
Maximum Humidity 94    
Minimum Humidity 54    
Precipitation  
Precipitation 0.00 in 0.10 in - ()
Sea Level Pressure  
Sea Level Pressure 30.11 in    
Wind  
Wind Speed 5 mph ()    
Max Wind Speed 10 mph    
Max Gust Speed -    
Visibility 6.1 miles    
Events      
Averages and records for this station are not official NWS values.
T = Trace of Precipitation, MM = Missing Value Source: Averaged Metar Reports

Daily Weather History Graph

Daily Weather History Graph

Search for Another Location

Airport or City:

Astronomy

Apr. 09, 2013 Rise Set
Actual Time 5:56 AM WET 6:46 PM WET
Civil Twilight 5:31 AM WET 7:12 PM WET
Nautical Twilight 5:01 AM WET 7:42 PM WET
Astronomical Twilight 4:30 AM WET 8:13 PM WET
Moon 5:09 AM WET (4/9) 6:08 PM WET (4/9)
Length of Visible Light 13h 40m
Length of Day
12h 50m
Waning Crescent, 1% of the Moon is Illuminated
Apr 9
Waning Crescent
Apr 10
New
Apr 18
First Quarter
Apr 25
Full
May 2
Last Quarter

Hourly Weather History & Observations

Time (WET) Temp. Windchill Dew Point Humidity Pressure Visibility Wind Dir Wind Speed Gust Speed Precip Events Conditions
12:00 AM 46.4 °F 44.3 °F 41.0 °F 81% 30.06 in - SW 4.6 mph - N/A   Clear
1:00 AM 46.4 °F 44.3 °F 41.0 °F 81% 30.04 in - South 4.6 mph - N/A   Clear
2:00 AM 44.6 °F 41.4 °F 39.2 °F 81% 30.04 in - South 5.8 mph - N/A   Clear
3:00 AM 44.6 °F 42.2 °F 39.2 °F 81% 30.04 in - SSE 4.6 mph - N/A   Clear
4:00 AM 44.6 °F 40.7 °F 39.2 °F 81% 30.04 in - South 6.9 mph - N/A   Clear
5:00 AM 44.6 °F 40.2 °F 37.4 °F 76% 30.06 in - South 8.1 mph - N/A   Clear
6:00 AM 43 °F - 40 °F 87% 30.13 in 6 mi South 4.6 mph - -  
6:00 AM 42.8 °F 40.1 °F 41.0 °F 93% 30.09 in - South 4.6 mph - N/A   Clear
7:00 AM 46.4 °F 45.2 °F 41.0 °F 81% 30.09 in - SW 3.5 mph - N/A   Clear
8:00 AM 53.6 °F - 44.6 °F 72% 30.12 in - WSW 3.5 mph - N/A   Clear
9:00 AM 56 °F - 47 °F 65% 30.14 in 6 mi SSW 4.6 mph - -   Clear
9:00 AM 59.0 °F - 50.0 °F 72% 30.15 in - WNW 5.8 mph - N/A   Clear
10:00 AM 60.8 °F - 51.8 °F 72% 30.15 in 6.2 mi Variable 3.5 mph - N/A   Partly Cloudy
11:00 AM 64.4 °F - 53.6 °F 68% 30.15 in 6.2 mi North 3.5 mph - N/A   Partly Cloudy
12:00 PM 65 °F - 54 °F 58% 30.10 in 6 mi WNW 4.6 mph - -   Scattered Clouds
12:00 PM 64.4 °F - 53.6 °F 68% 30.12 in 6.2 mi Variable 4.6 mph - N/A   Partly Cloudy
1:00 PM 68.0 °F - 53.6 °F 60% 30.09 in 6.2 mi Variable 3.5 mph - N/A   Partly Cloudy
2:00 PM 68.0 °F - 55.4 °F 64% 30.09 in 6.2 mi NW 5.8 mph - N/A   Partly Cloudy
3:00 PM 67 °F - 54 °F 54% 30.04 in 6 mi WNW 8.1 mph - -   Partly Cloudy
3:00 PM 66.2 °F - 51.8 °F 60% 30.09 in 6.2 mi WNW 8.1 mph - N/A   Scattered Clouds
4:00 PM 68.0 °F - 55.4 °F 64% 30.09 in 6.2 mi Variable 8.1 mph - N/A   Partly Cloudy
5:00 PM 66.2 °F - 53.6 °F 64% 30.09 in 6.2 mi NW 10.4 mph - N/A   Scattered Clouds
6:00 PM 64 °F - 52 °F 56% 30.10 in 6 mi NW 8.1 mph - -   Scattered Clouds
6:00 PM 64.4 °F - 53.6 °F 68% 30.12 in 6.2 mi NW 8.1 mph - N/A   Scattered Clouds
7:00 PM 57.2 °F - 50.0 °F 77% 30.15 in 6.2 mi WNW 5.8 mph - N/A   Scattered Clouds
8:00 PM 55.4 °F - 48.2 °F 77% 30.15 in 6.2 mi West 4.6 mph - N/A   Scattered Clouds
9:00 PM 52 °F - 48 °F 82% 30.19 in 6 mi SE 2.3 mph - -  
9:00 PM 51.8 °F - 48.2 °F 88% 30.18 in - SE 2.3 mph - N/A   Clear
10:00 PM 53.6 °F - 51.8 °F 94% 30.18 in - West 3.5 mph - N/A   Clear
11:00 PM 50.0 °F - 48.2 °F 94% 30.18 in - SSE 3.5 mph - N/A   Clear